EW5170 Weather Reports


Display with metric or nautical units.
time (UTC)temp
F
wind
direction
speed
MPH
gust
MPH
rain 1hr
in
rain 24hr
in
rain mn
in
humidity
%
barometer
mb
20260506211545 64 17 0.0 4.0 0.00 0.00 0.00 76 1009.7
20260506210045 64 11 0.0 3.0 0.00 0.00 0.00 76 1009.9
20260506204543 64 315 1.0 8.0 0.00 0.00 0.00 75 1010.0
20260506203045 65 200 0.0 7.0 0.00 0.00 0.00 74 1009.9
20260506201541 66 26 1.0 7.0 0.00 0.00 0.00 74 1009.7
20260506194540 68 159 1.0 6.0 0.00 0.00 0.00 73 1009.4
20260506193041 70 254 2.0 8.0 0.00 0.00 0.00 73 1009.3
20260506191539 71 277 1.0 6.0 0.00 0.00 0.00 72 1009.5
20260506190038 73 338 0.0 6.0 0.00 0.00 0.00 71 1009.5
20260506184537 74 221 1.0 5.0 0.00 0.00 0.00 71 1009.2
20260506183035 74 63 0.0 5.0 0.00 0.00 0.00 72 1009.1
20260506181536 73 115 1.0 6.0 0.00 0.00 0.00 75 1009.2
20260506180040 71 221 1.0 5.0 0.00 0.00 0.00 76 1008.9
20260506174531 70 108 2.0 8.0 0.00 0.00 0.00 78 1008.8
20260506173031 68 28 1.0 6.0 0.00 0.00 0.00 81 1008.8
20260506171544 66 127 0.0 7.0 0.00 0.00 0.00 83 1008.9
20260506170027 65 144 1.0 6.0 0.00 0.00 0.00 87 1009.0
20260506164527 63 90 1.0 6.0 0.00 0.00 0.00 88 1009.1
20260506163031 63 55 0.0 8.0 0.00 0.00 0.00 89 1009.9
20260506161536 62 128 1.0 7.0 0.00 0.00 0.00 87 1009.8
20260506160020 63 85 0.0 11.0 0.00 0.00 0.00 86 1010.6
20260506154549 65 24 1.0 5.0 0.00 0.00 0.00 84 1010.3
20260506153046 66 20 0.0 11.0 0.00 0.00 0.00 83 1010.3
20260506151541 68 19 0.0 6.0 0.00 0.00 0.00 81 1009.2
20260506150037 71 300 1.0 6.0 0.00 0.00 0.00 80 1008.9
20260506144531 74 338 1.0 8.0 0.00 0.00 0.00 80 1007.9
20260506143027 77 255 0.0 0.0 0.00 0.00 0.00 88 1007.6
20260506141524 76 257 0.0 1.0 0.00 0.00 0.00 89 1007.1
20260506140022 76 77 0.0 0.0 0.00 0.00 0.00 89 1007.4
20260506134539 75 243 0.0 0.0 0.00 0.00 0.00 89 1006.8
20260506133015 75 355 0.0 2.0 0.00 0.00 0.00 89 1006.8
20260506131513 74 81 0.0 0.0 0.00 0.00 0.00 89 1006.6
20260506130014 74 78 0.0 0.0 0.00 0.00 0.00 89 1006.5
20260506124513 74 61 0.0 0.0 0.00 0.00 0.00 89 1006.3
20260506123006 74 252 0.0 0.0 0.00 0.00 0.00 88 1006.1
20260506121508 74 252 0.0 0.0 0.00 0.00 0.00 88 1006.2
20260506120006 74 252 0.0 0.0 0.00 0.00 0.00 88 1006.3
20260506114601 74 252 0.0 0.0 0.00 0.00 0.00 88 1006.1
20260506113100 74 252 0.0 0.0 0.00 0.00 0.00 88 1006.2
20260506111613 74 252 0.0 0.0 0.00 0.00 0.00 88 1006.2
20260506110057 75 252 0.0 0.0 0.00 0.00 0.00 88 1006.2
20260506104604 75 252 0.0 0.0 0.00 0.00 0.00 87 1006.0
20260506103101 75 106 0.0 0.0 0.00 0.00 0.00 87 1005.9
20260506101554 75 126 0.0 0.0 0.00 0.00 0.00 87 1005.9
20260506100052 75 126 0.0 0.0 0.00 0.00 0.00 87 1005.8
20260506094550 75 126 0.0 0.0 0.00 0.00 0.00 87 1005.6
20260506093053 75 92 0.0 2.0 0.00 0.00 0.00 87 1005.2
20260506091548 75 76 0.0 0.0 0.00 0.00 0.00 87 1005.2
20260506090047 75 128 0.0 0.0 0.00 0.00 0.00 87 1005.0
20260506084547 75 76 0.0 2.0 0.00 0.00 0.00 87 1005.1
20260506083107 75 309 0.0 0.0 0.00 0.00 0.00 87 1005.0
20260506081550 75 226 0.0 1.0 0.00 0.00 0.00 87 1004.8
20260506073043 75 26 0.0 5.0 0.00 0.00 0.00 87 1005.2
20260506071545 75 268 0.0 1.0 0.00 0.00 0.00 87 1005.5
20260506061541 75 155 0.0 5.0 0.00 0.00 0.00 86 1005.2
20260506044528 76 168 0.0 0.0 0.00 0.00 0.00 85 1005.3
20260506043027 76 254 0.0 3.0 0.00 0.00 0.00 84 1005.4
20260506041531 76 68 0.0 2.0 0.00 0.00 0.00 84 1005.2
20260506040028 77 198 0.0 2.0 0.00 0.00 0.00 83 1005.1
20260506034527 77 198 0.0 2.0 0.00 0.00 0.00 83 1004.7
20260506033025 77 282 0.0 2.0 0.00 0.00 0.00 82 1004.8
20260506031531 78 177 0.0 3.0 0.00 0.00 0.00 81 1004.5
20260506030026 78 236 0.0 2.0 0.00 0.00 0.00 81 1004.4
20260506024536 78 254 0.0 3.0 0.00 0.00 0.00 80 1004.3
20260506023022 78 346 0.0 0.0 0.00 0.00 0.00 79 1003.9
20260506021522 79 338 0.0 1.0 0.00 0.00 0.00 78 1003.7
20260506020024 79 82 0.0 2.0 0.00 0.00 0.00 77 1003.3
20260506014522 80 40 0.0 0.0 0.00 0.00 0.00 76 1003.2
20260506013022 80 32 0.0 0.0 0.00 0.00 0.00 75 1003.1
20260506011546 81 337 0.0 1.0 0.00 0.00 0.00 74 1003.0
20260506010020 82 177 0.0 0.0 0.00 0.00 0.00 74 1003.0
20260506004519 82 175 0.0 0.0 0.00 0.00 0.00 73 1003.0
20260506003019 82 257 0.0 1.0 0.00 0.00 0.00 72 1002.9
20260506001518 83 148 0.0 0.0 0.00 0.00 0.00 71 1003.1
20260506000030 83 148 0.0 1.0 0.00 0.00 0.00 71 1003.0
20260505234534 84 213 0.0 1.0 0.00 0.00 0.00 70 1002.8
20260505233016 84 360 0.0 2.0 0.00 0.00 0.00 69 1002.6
20260505231516 84 232 0.0 2.0 0.00 0.00 0.00 68 1002.4
20260505230028 85 236 1.0 7.0 0.00 0.00 0.00 67 1002.4
20260505224523 85 308 0.0 2.0 0.00 0.00 0.00 66 1002.3
20260505223016 86 194 0.0 2.0 0.00 0.00 0.00 65 1002.3
20260505221512 86 192 0.0 3.0 0.00 0.00 0.00 66 1002.2
20260505220011 86 153 0.0 4.0 0.00 0.00 0.00 65 1002.5
20260505214514 86 184 1.0 5.0 0.00 0.00 0.00 64 1002.8
20260505213007 87 103 0.0 3.0 0.00 0.00 0.00 65 1002.8